Location: LDNL
(36.4545°S, 141.6685°E)
Time: 21:13:33
(UTC+11:00)

Courier 1B Rocket - Pass Details

Date: 06 February 2023
Orbit: 920 x 1202 km, 28.2° (Epoch: 26 March)

Event Time Altitude Azimuth Distance (km) Brightness Sun altitude
Rises 08:49:22 0° 274° (W) 4,101 7.7 21.6°
Reaches altitude 10° 08:52:27 10° 282° (WNW) 3,142 7.2 22.2°
Maximum altitude 08:59:31 37° 345° (NNW) 1,768 6.5 23.7°
Drops below altitude 10° 09:06:25 10° 49° (NE) 3,067 8.4 25.1°
Sets 09:09:24 0° 57° (ENE) 3,992 9.0 25.6°
